Weather in Milovice

Czech Republic     50°13′39″N   14°53′21″E
temp.,
°C
wind,
m/s
gust,
m/s
humid.,
%
clouds,
%
prec.,
mm/h
press.,
hPa
HPBL,
m
12 april, mon
mon1223:00+9e59866 0.0 1013163
02:00+7e478811 0.0 1014114
05:00+6n4794100 0.0 1015188
08:00+5nnw71088100 0.1 1018498
11:00+3nw81286100 0.1 1021720
14:00+2nw61297100 1.8 1024651
17:00+4nnw5984100 1.3 1025958
20:00+3nnw4894100 1.6 1026633
13 april, tue
tue1323:00+3wnw2389100 0.1 102788
02:00+3wnw2386100 0.1 102878
05:00+2nnw3485100 0.0 102892
08:00+3nnw3881100 0.0 1028389
11:00+6nnw5763100 0.0 10291334
14:00+8nnw6749100 0.1 10282093
17:00+8nnw6747100 0.0 10271951
20:00+5nw4859100 0.0 1028208
14 april, wed
wed1423:00+3nw3768100 0.0 1028168
02:00+3nnw41171100 0.0 1028376
05:00+1nw4979100 0.0 1028296
08:00+2nnw5976100 0.0 1028540
11:00+6nnw6754100 0.0 10281572
14:00+8nnw6744100 0.0 10262278
17:00+7nnw6749100 0.0 10251713
20:00+4nw336273 0.0 102535
15 april, thu
thu1523:00+2nw337173 0.0 102644
02:000nw337699 0.0 102654
05:000nw3580100 0.0 102590
08:00+2nw4874100 0.0 1026422
11:00+6nnw5659100 0.1 10251378
14:00+8nnw6543100 0.1 10242087
17:00+7n664685 0.0 10231769
20:00+3n487336 0.0 1024166
16 april, fri
fri1623:000nnw37845 0.0 1024131
02:00−1wnw369413 0.0 1024142
05:00−1wnw3794100 0.0 1024183
08:00+2wnw357156 0.0 1023696
11:00+5wnw346079 0.0 10231167
14:00+7wnw2354100 0.1 10221528
17:00+7n225658 0.0 10221016
20:00+3nne337513 0.0 102229